Home   Weather   Chongqing   Past weeks

Flag for China Past Weather in Chongqing, Chongqing Municipality, China — Yesterday and Last 2 Weeks

Now
50 °F

Fog.


Feels Like: 46 °F
Forecast: 51 / 63 °F
Wind: 10 mph from North

Location: Chongqing Airport

Current Time: Dec 10, 2016 at 9:04:36 pm

Latest Report: Dec 10, 2016 at 8:00 pm


Visibility: 3 mi

Pressure: 29.98 "Hg

Humidity: 88%

Dew Point: 46 °F

Location of ChongqingLocation

Past Weather in Chongqing — Graph

°F

Chongqing Temperature Yesterday

Maximum temperature yesterday: 55 °F (at 2:00 pm)
Minimum temperature yesterday: 46 °F (at 2:00 am)
Average temperature yesterday: 51 °F

High & Low Weather Summary for the Past Weeks

 TemperatureHumidityPressure
High63 °F (Dec 6, 3:00 pm)94% (Nov 30, 9:00 am)30.54 "Hg (Nov 30, 9:00 am)
Low39 °F (Nov 27, 6:00 am)36% (Nov 26, 4:00 pm)29.89 "Hg (Dec 9, 3:00 pm)
Average50 °F77%30.28 "Hg
* Reported Nov 25 8:00 pm — Dec 10 8:00 pm, Chongqing, Weather by CustomWeather, © 2016

Note: Actual official high and low records may vary slightly from our data, if they occured in-between our weather recording intervals... More about our weather records

Advertising

Chongqing Weather History for the Previous 24 Hours

Scroll right to see more
 ConditionsComfort  
Time TempWeatherWind HumidityBarometerVisibility
8:00 pm
Sat, Dec 10
50 °FFog.10 mph88%29.98 "Hg2 mi
7:00 pm52 °FFog.6 mph82%29.98 "Hg2 mi
6:00 pm52 °FFog.8 mph82%29.98 "Hg1 mi
5:00 pm54 °FFog.10 mph77%29.98 "Hg2 mi
4:00 pm54 °FFog.10 mph77%29.98 "Hg2 mi
3:00 pm55 °FFog.8 mph72%30.01 "Hg2 mi
2:00 pm55 °FFog.6 mph72%30.04 "Hg2 mi
1:00 pm54 °FFog.3 mph77%30.09 "Hg1 mi
12:00 pm52 °FFog.3 mph88%30.15 "Hg1 mi
11:00 am52 °FFog.3 mph82%30.18 "Hg1 mi
10:00 am52 °FFog.1 mph82%30.18 "Hg1 mi
9:00 am52 °FFog.1 mph82%30.18 "Hg1 mi
8:00 am52 °FFog.1 mph82%30.15 "Hg1 mi
7:00 am52 °FFog.3 mph82%30.15 "Hg2 mi
6:00 am50 °FFog.6 mph88%30.12 "Hg2 mi
5:00 am50 °FFog.3 mph88%30.15 "Hg2 mi
4:00 am50 °FFog.3 mph88%30.15 "Hg2 mi
3:00 am50 °FFog.3 mph88%30.15 "Hg2 mi
2:00 am50 °FFog.1 mph88%30.15 "Hg2 mi
1:00 am50 °FFog.3 mph82%30.12 "Hg1 mi
12:00 am50 °FFog.1 mph82%30.12 "Hg1 mi
11:00 pm
Fri, Dec 9
50 °FFog.3 mph82%30.12 "Hg1 mi
10:00 pm50 °FFog.3 mph82%30.09 "Hg2 mi
9:00 pm50 °FFog.13 mph82%30.07 "Hg1 mi
Weather by CustomWeather, © 2016

See weather overviewHow to use our weather pages